Location: Cisewo
(53.3833°N, 14.9000°E)
Time: 10:25:54
(UTC+00:00)

USA 307 - Pass Details

Date: 18 April 2021
Orbit: 566 x 577 km, 54.0° (Epoch: 10 May)

Event Time Altitude Azimuth Distance (km) Brightness Sun altitude
Exits shadow 23:55:50 34° 97° (E) 965 4.0 -24.3°
Drops below altitude 10° 23:58:29 10° 77° (ENE) 1,891 5.9 -24.2°
Sets 00:00:47 0° 73° (ENE) 2,793 6.9 -24.1°
